timestamp,surface_pressure_avg,surface_temp_avg,battery_voltage,lat,long
2018-01-10 00:00:00+00:00,227.4315,1.9,12.73,47.84626,-54.09684
2018-01-10 00:10:00+00:00,233.7664,1.9,12.65,47.84626,-54.09684
2018-01-10 00:20:00+00:00,232.6431,1.9,12.73,47.84626,-54.09684
2018-01-10 00:30:00+00:00,225.9114,1.9,12.73,47.84626,-54.09684
2018-01-10 00:40:00+00:00,228.3331,1.9,12.73,47.84626,-54.09684
2018-01-10 00:50:00+00:00,233.4398,1.9,12.81,47.84626,-54.09684
2018-01-10 01:00:00+00:00,226.9431,1.9,12.73,47.84626,-54.09684
2018-01-10 01:10:00+00:00,218.0348,1.9,12.65,47.84626,-54.09684
2018-01-10 01:20:00+00:00,224.2064,1.9,12.73,47.84626,-54.09684
2018-01-10 01:30:00+00:00,236.7631,1.87,12.73,47.84626,-54.09684
2018-01-10 01:40:00+00:00,236.7781,1.87,12.73,47.84626,-54.09684
2018-01-10 01:50:00+00:00,230.2514,1.87,12.81,47.84626,-54.09684
2018-01-10 02:00:00+00:00,232.3331,1.87,12.73,47.84626,-54.09684
2018-01-10 02:10:00+00:00,235.8514,1.8,12.65,47.84626,-54.09684
2018-01-10 02:20:00+00:00,235.1931,1.6,12.73,47.84626,-54.09684
2018-01-10 02:30:00+00:00,236.1798,1.4,12.73,47.84626,-54.09684
2018-01-10 02:40:00+00:00,241.5664,1.39,12.73,47.84626,-54.09684
2018-01-10 02:50:00+00:00,249.9148,1.51,12.81,47.84626,-54.09684
2018-01-10 03:00:00+00:00,252.3581,1.5,12.73,47.84626,-54.09684
2018-01-10 03:10:00+00:00,252.2814,1.4,12.65,47.84626,-54.09684
2018-01-10 03:20:00+00:00,258.4364,1.3,12.73,47.84626,-54.09684
2018-01-10 03:30:00+00:00,268.4363,1.4,12.73,47.84626,-54.09684
2018-01-10 03:40:00+00:00,276.4197,1.7,12.73,47.84626,-54.09684
2018-01-10 03:50:00+00:00,281.5497,1.78,12.73,47.84626,-54.09684
2018-01-10 04:00:00+00:00,290.588,1.87,12.73,47.84626,-54.09684
2018-01-10 04:10:00+00:00,296.5497,1.89,12.65,47.84626,-54.09684
2018-01-10 04:20:00+00:00,297.2197,1.88,12.73,47.84626,-54.09684
2018-01-10 04:30:00+00:00,299.3463,1.9,12.73,47.84626,-54.09684
2018-01-10 04:40:00+00:00,309.9331,1.9,12.73,47.84626,-54.09684
2018-01-10 04:50:00+00:00,314.8463,1.9,12.73,47.84626,-54.09684
2018-01-10 05:00:00+00:00,314.6013,1.9,12.73,47.84626,-54.09684
2018-01-10 05:10:00+00:00,319.088,1.9,12.65,47.84626,-54.09684
2018-01-10 05:20:00+00:00,330.468,1.9,12.73,47.84626,-54.09684
2018-01-10 05:30:00+00:00,332.4265,1.9,12.73,47.84626,-54.09684
2018-01-10 05:40:00+00:00,336.1331,1.7,12.73,47.84626,-54.09684
2018-01-10 05:50:00+00:00,343.258,1.6,12.73,47.84626,-54.09684
2018-01-10 06:00:00+00:00,347.3113,1.5,12.73,47.84626,-54.09684
2018-01-10 06:10:00+00:00,344.6996,1.4,12.65,47.84626,-54.09684
2018-01-10 06:20:00+00:00,346.7996,1.42,12.73,47.84626,-54.09684
2018-01-10 06:30:00+00:00,351.3029,1.45,12.73,47.84626,-54.09684
2018-01-10 06:40:00+00:00,347.3796,1.4,12.73,47.84626,-54.09684
2018-01-10 06:50:00+00:00,344.3246,1.4,12.73,47.84626,-54.09684
2018-01-10 07:00:00+00:00,347.9913,1.4,12.73,47.84626,-54.09684
2018-01-10 07:10:00+00:00,348.4363,1.4,12.65,47.84626,-54.09684
2018-01-10 07:20:00+00:00,341.2913,1.4,12.73,47.84626,-54.09684
2018-01-10 07:30:00+00:00,336.9347,1.4,12.73,47.84626,-54.09684
2018-01-10 07:40:00+00:00,339.183,1.4,12.73,47.84626,-54.09684
2018-01-10 07:50:00+00:00,334.178,1.3,12.73,47.84626,-54.09684
2018-01-10 08:00:00+00:00,324.338,1.1,12.65,47.84626,-54.09684
2018-01-10 08:10:00+00:00,317.8297,1.2,12.65,47.84626,-54.09684
2018-01-10 08:20:00+00:00,312.828,1.28,12.73,47.84626,-54.09684
2018-01-10 08:30:00+00:00,305.0197,1.3,12.73,47.84626,-54.09684
2018-01-10 08:40:00+00:00,293.4547,1.3,12.73,47.84626,-54.09684
2018-01-10 08:50:00+00:00,290.3881,1.46,12.73,47.84626,-54.09684
2018-01-10 09:00:00+00:00,288.4647,1.6,12.65,47.84626,-54.09684
2018-01-10 09:10:00+00:00,279.1614,1.7,12.65,47.84626,-54.09684
2018-01-10 09:20:00+00:00,269.9447,1.6,12.73,47.84626,-54.09684
2018-01-10 09:30:00+00:00,266.0664,1.6,12.73,47.84626,-54.09684
2018-01-10 09:40:00+00:00,261.6581,1.6,12.73,47.84626,-54.09684
2018-01-10 09:50:00+00:00,250.9047,1.6,12.73,47.84626,-54.09684
2018-01-10 10:00:00+00:00,245.5431,1.4,12.65,47.84626,-54.09684
2018-01-10 10:10:00+00:00,246.6464,1.3,12.65,47.84626,-54.09684
2018-01-10 10:20:00+00:00,246.4348,1.3,12.73,47.84626,-54.09684
2018-01-10 10:30:00+00:00,243.5714,0.73,12.73,47.84626,-54.09684
2018-01-10 10:40:00+00:00,241.1198,0.3,12.73,47.84626,-54.09684
2018-01-10 10:50:00+00:00,241.1431,0.3,12.73,47.84626,-54.09684
2018-01-10 11:00:00+00:00,243.3647,0.5,12.65,47.84626,-54.09684
2018-01-10 11:10:00+00:00,243.8914,0.33,12.65,47.84626,-54.09684
2018-01-10 11:20:00+00:00,243.5847,0.1,12.73,47.84626,-54.09684
2018-01-10 11:30:00+00:00,246.2514,0.44,12.73,47.84626,-54.09684
2018-01-10 11:40:00+00:00,245.7764,0.69,12.73,47.84626,-54.09684
2018-01-10 11:50:00+00:00,240.9448,0.6,12.73,47.84626,-54.09684
2018-01-10 12:00:00+00:00,239.0114,0.95,12.65,47.84626,-54.09684
2018-01-10 12:10:00+00:00,240.6714,1.19,12.65,47.84626,-54.09684
2018-01-10 12:20:00+00:00,240.6497,1.29,12.73,47.84626,-54.09684
2018-01-10 12:30:00+00:00,239.4047,1.57,12.73,47.84626,-54.09684
2018-01-10 12:40:00+00:00,237.1881,1.82,12.81,47.84626,-54.09684
2018-01-10 12:50:00+00:00,237.5547,1.99,13.05,47.84626,-54.09684
2018-01-10 13:00:00+00:00,241.2465,2.13,13.13,47.84626,-54.09684
2018-01-10 13:10:00+00:00,242.328,2.17,13.29,47.84626,-54.09684
2018-01-10 13:20:00+00:00,238.1231,2.1,13.44,47.84626,-54.09684
2018-01-10 13:30:00+00:00,242.1447,2.1,13.68,47.84626,-54.09684
2018-01-10 13:40:00+00:00,249.9681,2.05,13.84,47.84626,-54.09684
2018-01-10 13:50:00+00:00,252.1097,2.02,13.44,47.84626,-54.09684
2018-01-10 14:00:00+00:00,255.5247,2.0,13.29,47.84626,-54.09684
2018-01-10 14:10:00+00:00,260.6048,2.0,13.13,47.84626,-54.09684
2018-01-10 14:20:00+00:00,264.6347,2.1,13.21,47.84626,-54.09684
2018-01-10 14:30:00+00:00,266.0114,2.21,13.29,47.84626,-54.09684
2018-01-10 14:40:00+00:00,265.5114,2.3,13.76,47.84626,-54.09684
2018-01-10 14:50:00+00:00,265.3781,2.3,14.08,47.84626,-54.09684
2018-01-10 15:00:00+00:00,265.4714,2.38,14.0,47.84626,-54.09684
2018-01-10 15:10:00+00:00,265.8264,2.4,14.0,47.84626,-54.09684
2018-01-10 15:20:00+00:00,267.6931,2.4,14.24,47.84626,-54.09684
2018-01-10 15:30:00+00:00,270.0347,2.4,14.08,47.84626,-54.09684
2018-01-10 15:40:00+00:00,270.3464,2.4,14.16,47.84626,-54.09684
2018-01-10 15:50:00+00:00,270.3581,2.4,13.76,47.84626,-54.09684
2018-01-10 16:00:00+00:00,272.1281,2.4,13.68,47.84626,-54.09684
2018-01-10 16:10:00+00:00,278.9363,2.06,13.92,47.84626,-54.09684
2018-01-10 16:20:00+00:00,284.7297,2.0,14.08,47.84626,-54.09684
2018-01-10 16:30:00+00:00,285.7081,2.0,14.16,47.84626,-54.09684
2018-01-10 16:40:00+00:00,286.0864,2.13,14.24,47.84626,-54.09684
2018-01-10 16:50:00+00:00,290.7914,2.26,14.24,47.84626,-54.09684
2018-01-10 17:00:00+00:00,295.1747,2.2,14.0,47.84626,-54.09684
2018-01-10 17:10:00+00:00,298.2297,2.12,13.84,47.84626,-54.09684
2018-01-10 17:20:00+00:00,304.0013,2.17,14.0,47.84626,-54.09684
2018-01-10 17:30:00+00:00,308.883,2.2,13.76,47.84626,-54.09684
2018-01-10 17:40:00+00:00,308.798,2.2,13.76,47.84626,-54.09684
2018-01-10 17:50:00+00:00,309.9147,2.21,13.92,47.84626,-54.09684
2018-01-10 18:00:00+00:00,313.2147,2.33,13.6,47.84626,-54.09684
2018-01-10 18:10:00+00:00,311.2397,2.4,13.44,47.84626,-54.09684
2018-01-10 18:20:00+00:00,310.283,2.5,13.44,47.84626,-54.09684
2018-01-10 18:30:00+00:00,314.7047,2.58,13.29,47.84626,-54.09684
2018-01-10 18:40:00+00:00,317.6146,2.6,13.21,47.84626,-54.09684
2018-01-10 18:50:00+00:00,317.9279,2.68,13.21,47.84626,-54.09684
2018-01-10 19:00:00+00:00,319.6896,2.7,13.05,47.84626,-54.09684
2018-01-10 19:10:00+00:00,324.0197,2.7,13.05,47.84626,-54.09684
2018-01-10 19:20:00+00:00,324.2579,2.7,13.13,47.84626,-54.09684
2018-01-10 19:30:00+00:00,324.283,2.7,13.05,47.84626,-54.09684
2018-01-10 19:40:00+00:00,326.4163,2.7,13.05,47.84626,-54.09684
2018-01-10 19:50:00+00:00,323.1379,2.75,13.05,47.84626,-54.09684
2018-01-10 20:00:00+00:00,322.6596,2.7,12.97,47.84626,-54.09684
2018-01-10 20:10:00+00:00,320.0897,2.7,12.97,47.84626,-54.09684
2018-01-10 20:20:00+00:00,319.5597,2.7,13.05,47.84626,-54.09684
2018-01-10 20:30:00+00:00,315.328,2.77,12.97,47.84626,-54.09684
2018-01-10 20:40:00+00:00,311.4431,2.8,13.05,47.84626,-54.09684
2018-01-10 20:50:00+00:00,306.483,2.8,13.05,47.84626,-54.09684
2018-01-10 21:00:00+00:00,302.6414,2.8,12.97,47.84626,-54.09684
2018-01-10 21:10:00+00:00,298.9697,2.78,12.89,47.84626,-54.09684
2018-01-10 21:20:00+00:00,292.5514,2.5,12.97,47.84626,-54.09684
2018-01-10 21:30:00+00:00,284.1063,2.6,12.97,47.84626,-54.09684
2018-01-10 21:40:00+00:00,282.4781,2.8,12.97,47.84626,-54.09684
2018-01-10 21:50:00+00:00,278.6263,2.8,12.97,47.84626,-54.09684
2018-01-10 22:00:00+00:00,272.968,2.49,12.89,47.84626,-54.09684
2018-01-10 22:10:00+00:00,266.0964,2.28,12.89,47.84626,-54.09684
2018-01-10 22:20:00+00:00,262.3414,1.8,12.97,47.84626,-54.09684
2018-01-10 22:30:00+00:00,257.3064,1.63,12.97,47.84626,-54.09684
2018-01-10 22:40:00+00:00,254.0881,1.6,12.97,47.84626,-54.09684
2018-01-10 22:50:00+00:00,249.0281,1.63,12.97,47.84626,-54.09684
2018-01-10 23:00:00+00:00,241.8381,1.66,12.89,47.84626,-54.09684
2018-01-10 23:10:00+00:00,237.5731,1.86,12.81,47.84626,-54.09684
2018-01-10 23:20:00+00:00,236.5298,1.9,12.97,47.84626,-54.09684
2018-01-10 23:30:00+00:00,234.3298,2.08,12.89,47.84626,-54.09684
2018-01-10 23:40:00+00:00,230.6614,2.1,12.97,47.84626,-54.09684
2018-01-10 23:50:00+00:00,226.5748,2.0,12.97,47.84626,-54.09684
